contact:dominique.lefevre@mio.osupytheas.fr, maurice.libes@osupytheas.fr, didier.mallarino@osupytheas.fr
Project:EMSO http://www.emso-fr.org/EMSO-France
Depth: 2436.0 m
Title:EMSO Ligure Ouest : Data MII capteur MICROCAT
DateTime_Computer,Latitude,Longitude,Temperature,Conductivity,Pressure,DateTime_Instrument
DateTime_Computer,Latitude,Longitude,degC,S m-1,dbar,DateTime_Instrument
2019-10-08T00:00:47Z,42.805,6.029,13.2984,4.59977,2469.89,2019-10-08T02:01:12Z
2019-10-08T00:03:50Z,42.805,6.029,13.2976,4.59981,2469.9,2019-10-08T02:04:15Z
2019-10-08T00:06:53Z,42.805,6.029,13.2971,4.59968,2469.876,2019-10-08T02:07:18Z
2019-10-08T00:09:57Z,42.805,6.029,13.2979,4.59982,2469.9,2019-10-08T02:10:21Z
2019-10-08T00:13:00Z,42.805,6.029,13.2982,4.59971,2469.89,2019-10-08T02:13:25Z
2019-10-08T00:16:03Z,42.805,6.029,13.2964,4.59961,2469.853,2019-10-08T02:16:28Z
2019-10-08T00:19:06Z,42.805,6.029,13.2957,4.59962,2469.853,2019-10-08T02:19:31Z
2019-10-08T00:22:09Z,42.805,6.029,13.2967,4.59966,2469.9,2019-10-08T02:22:34Z
2019-10-08T00:25:13Z,42.805,6.029,13.2961,4.59961,2469.9,2019-10-08T02:25:37Z
2019-10-08T00:28:16Z,42.805,6.029,13.2961,4.59961,2469.89,2019-10-08T02:28:41Z
2019-10-08T00:31:19Z,42.805,6.029,13.2964,4.59961,2469.914,2019-10-08T02:31:44Z
2019-10-08T00:34:22Z,42.805,6.029,13.2967,4.59968,2469.923,2019-10-08T02:34:47Z
2019-10-08T00:37:26Z,42.805,6.029,13.2963,4.59960,2469.9,2019-10-08T02:37:51Z
2019-10-08T00:40:29Z,42.805,6.029,13.2964,4.59961,2469.853,2019-10-08T02:40:54Z
2019-10-08T00:43:32Z,42.805,6.029,13.2962,4.59958,2469.9,2019-10-08T02:43:57Z
2019-10-08T00:46:35Z,42.805,6.029,13.2961,4.59958,2469.89,2019-10-08T02:47:00Z
2019-10-08T00:49:38Z,42.805,6.029,13.2962,4.59958,2469.947,2019-10-08T02:50:03Z
2019-10-08T00:52:42Z,42.805,6.029,13.2959,4.59958,2469.9,2019-10-08T02:53:06Z
2019-10-08T00:55:45Z,42.805,6.029,13.2964,4.59958,2469.9,2019-10-08T02:56:10Z
2019-10-08T00:58:48Z,42.805,6.029,13.2961,4.59958,2469.914,2019-10-08T02:59:13Z
2019-10-08T01:01:51Z,42.805,6.029,13.2960,4.59958,2469.937,2019-10-08T03:02:16Z
2019-10-08T01:04:55Z,42.805,6.029,13.2959,4.59961,2469.923,2019-10-08T03:05:19Z
2019-10-08T01:07:58Z,42.805,6.029,13.2961,4.59958,2469.89,2019-10-08T03:08:23Z
2019-10-08T01:11:01Z,42.805,6.029,13.2964,4.59961,2469.914,2019-10-08T03:11:26Z
2019-10-08T01:14:04Z,42.805,6.029,13.2961,4.59958,2469.923,2019-10-08T03:14:29Z
2019-10-08T01:17:08Z,42.805,6.029,13.2961,4.59962,2469.914,2019-10-08T03:17:32Z
2019-10-08T01:20:11Z,42.805,6.029,13.2963,4.59958,2469.9,2019-10-08T03:20:36Z
2019-10-08T01:23:14Z,42.805,6.029,13.2962,4.59958,2469.914,2019-10-08T03:23:39Z
2019-10-08T01:26:17Z,42.805,6.029,13.2960,4.59958,2469.914,2019-10-08T03:26:42Z
2019-10-08T01:29:20Z,42.805,6.029,13.2961,4.59960,2469.923,2019-10-08T03:29:45Z
2019-10-08T01:32:24Z,42.805,6.029,13.2958,4.59958,2469.914,2019-10-08T03:32:48Z
2019-10-08T01:35:27Z,42.805,6.029,13.2958,4.59958,2469.914,2019-10-08T03:35:52Z
2019-10-08T01:38:30Z,42.805,6.029,13.2964,4.59961,2469.914,2019-10-08T03:38:55Z
2019-10-08T01:41:33Z,42.805,6.029,13.2961,4.59958,2469.9,2019-10-08T03:41:58Z
2019-10-08T01:44:36Z,42.805,6.029,13.2959,4.59958,2469.937,2019-10-08T03:45:01Z
2019-10-08T01:47:40Z,42.805,6.029,13.2963,4.59960,2469.89,2019-10-08T03:48:05Z
2019-10-08T01:50:43Z,42.805,6.029,13.2960,4.59958,2469.923,2019-10-08T03:51:08Z
2019-10-08T01:53:46Z,42.805,6.029,13.2964,4.59959,2469.89,2019-10-08T03:54:11Z
2019-10-08T01:56:49Z,42.805,6.029,13.2961,4.59959,2469.914,2019-10-08T03:57:14Z
2019-10-08T01:59:53Z,42.805,6.029,13.2961,4.59960,2469.96,2019-10-08T04:00:17Z
2019-10-08T02:02:56Z,42.805,6.029,13.2963,4.59958,2469.914,2019-10-08T04:03:21Z
2019-10-08T02:05:59Z,42.805,6.029,13.2960,4.59959,2469.937,2019-10-08T04:06:24Z
2019-10-08T02:09:02Z,42.805,6.029,13.2962,4.59959,2469.96,2019-10-08T04:09:27Z
2019-10-08T02:12:05Z,42.805,6.029,13.2959,4.59958,2469.9,2019-10-08T04:12:30Z
2019-10-08T02:15:09Z,42.805,6.029,13.2962,4.59961,2469.923,2019-10-08T04:15:33Z
2019-10-08T02:18:12Z,42.805,6.029,13.2959,4.59958,2469.9,2019-10-08T04:18:37Z
2019-10-08T02:21:15Z,42.805,6.029,13.2963,4.59958,2469.923,2019-10-08T04:21:40Z
2019-10-08T02:24:18Z,42.805,6.029,13.2964,4.59960,2469.96,2019-10-08T04:24:43Z
2019-10-08T02:27:22Z,42.805,6.029,13.2965,4.59961,2469.9,2019-10-08T04:27:46Z
2019-10-08T02:30:25Z,42.805,6.029,13.2961,4.59961,2469.923,2019-10-08T04:30:50Z
2019-10-08T02:33:28Z,42.805,6.029,13.2963,4.59958,2469.9,2019-10-08T04:33:53Z
2019-10-08T02:36:31Z,42.805,6.029,13.2962,4.59960,2469.9,2019-10-08T04:36:56Z
2019-10-08T02:39:34Z,42.805,6.029,13.2958,4.59959,2469.947,2019-10-08T04:39:59Z
2019-10-08T02:42:38Z,42.805,6.029,13.2963,4.59959,2469.923,2019-10-08T04:43:02Z
2019-10-08T02:45:41Z,42.805,6.029,13.2964,4.59958,2469.947,2019-10-08T04:46:06Z
2019-10-08T02:48:44Z,42.805,6.029,13.2961,4.59960,2469.923,2019-10-08T04:49:09Z
2019-10-08T02:51:47Z,42.805,6.029,13.2961,4.59958,2469.923,2019-10-08T04:52:12Z
2019-10-08T02:54:50Z,42.805,6.029,13.2958,4.59960,2469.923,2019-10-08T04:55:15Z
2019-10-08T02:57:54Z,42.805,6.029,13.2958,4.59958,2469.914,2019-10-08T04:58:18Z
2019-10-08T03:00:57Z,42.805,6.029,13.2958,4.59961,2469.914,2019-10-08T05:01:22Z
2019-10-08T03:04:00Z,42.805,6.029,13.2961,4.59960,2469.947,2019-10-08T05:04:25Z
2019-10-08T03:07:03Z,42.805,6.029,13.2965,4.59960,2469.937,2019-10-08T05:07:28Z
2019-10-08T03:10:06Z,42.805,6.029,13.2958,4.59959,2469.923,2019-10-08T05:10:31Z
2019-10-08T03:13:10Z,42.805,6.029,13.2961,4.59959,2469.937,2019-10-08T05:13:34Z
2019-10-08T03:16:13Z,42.805,6.029,13.2964,4.59961,2469.923,2019-10-08T05:16:38Z
2019-10-08T03:19:16Z,42.805,6.029,13.2961,4.59960,2469.923,2019-10-08T05:19:41Z
2019-10-08T03:22:19Z,42.805,6.029,13.2967,4.59959,2469.937,2019-10-08T05:22:44Z
2019-10-08T03:25:22Z,42.805,6.029,13.2963,4.59961,2469.886,2019-10-08T05:25:47Z
2019-10-08T03:28:26Z,42.805,6.029,13.2963,4.59959,2469.89,2019-10-08T05:28:50Z
2019-10-08T03:31:29Z,42.805,6.029,13.2963,4.59961,2469.923,2019-10-08T05:31:54Z
2019-10-08T03:34:32Z,42.805,6.029,13.2964,4.59960,2469.9,2019-10-08T05:34:57Z
2019-10-08T03:37:35Z,42.805,6.029,13.2961,4.59958,2469.923,2019-10-08T05:38:00Z
2019-10-08T03:40:39Z,42.805,6.029,13.2960,4.59960,2469.947,2019-10-08T05:41:03Z
2019-10-08T03:43:42Z,42.805,6.029,13.2963,4.59959,2469.923,2019-10-08T05:44:07Z
2019-10-08T03:46:45Z,42.805,6.029,13.2962,4.59961,2469.923,2019-10-08T05:47:10Z
2019-10-08T03:49:48Z,42.805,6.029,13.2963,4.59958,2469.914,2019-10-08T05:50:13Z
2019-10-08T03:52:51Z,42.805,6.029,13.2964,4.59959,2469.96,2019-10-08T05:53:16Z
2019-10-08T03:55:55Z,42.805,6.029,13.2962,4.59960,2469.947,2019-10-08T05:56:19Z
2019-10-08T03:58:58Z,42.805,6.029,13.2962,4.59960,2469.947,2019-10-08T05:59:23Z
2019-10-08T04:02:01Z,42.805,6.029,13.2960,4.59961,2469.96,2019-10-08T06:02:26Z
2019-10-08T04:05:04Z,42.805,6.029,13.2959,4.59959,2469.97,2019-10-08T06:05:29Z
2019-10-08T04:08:07Z,42.805,6.029,13.2962,4.59959,2469.947,2019-10-08T06:08:32Z
2019-10-08T04:11:11Z,42.805,6.029,13.2961,4.59958,2469.9,2019-10-08T06:11:35Z
2019-10-08T04:14:14Z,42.805,6.029,13.2962,4.59961,2469.923,2019-10-08T06:14:39Z
2019-10-08T04:17:17Z,42.805,6.029,13.2960,4.59959,2469.923,2019-10-08T06:17:42Z
2019-10-08T04:20:20Z,42.805,6.029,13.2964,4.59958,2469.937,2019-10-08T06:20:45Z
2019-10-08T04:23:23Z,42.805,6.029,13.2960,4.59958,2469.937,2019-10-08T06:23:48Z
2019-10-08T04:26:27Z,42.805,6.029,13.2961,4.59960,2469.947,2019-10-08T06:26:52Z
2019-10-08T04:29:30Z,42.805,6.029,13.2964,4.59960,2469.96,2019-10-08T06:29:55Z
2019-10-08T04:32:33Z,42.805,6.029,13.2962,4.59965,2469.9,2019-10-08T06:32:58Z
2019-10-08T04:35:36Z,42.805,6.029,13.2963,4.59961,2469.947,2019-10-08T06:36:01Z
2019-10-08T04:38:40Z,42.805,6.029,13.2964,4.59960,2469.937,2019-10-08T06:39:04Z
2019-10-08T04:41:43Z,42.805,6.029,13.2964,4.59959,2469.937,2019-10-08T06:42:08Z
2019-10-08T04:44:46Z,42.805,6.029,13.2962,4.59959,2469.937,2019-10-08T06:45:11Z
2019-10-08T04:47:49Z,42.805,6.029,13.2964,4.59960,2469.937,2019-10-08T06:48:14Z
2019-10-08T04:50:52Z,42.805,6.029,13.2964,4.59961,2469.947,2019-10-08T06:51:17Z
2019-10-08T04:53:56Z,42.805,6.029,13.2958,4.59960,2469.923,2019-10-08T06:54:21Z
2019-10-08T04:56:59Z,42.805,6.029,13.2964,4.59960,2469.937,2019-10-08T06:57:24Z
2019-10-08T05:00:02Z,42.805,6.029,13.2962,4.59960,2469.923,2019-10-08T07:00:27Z
2019-10-08T05:03:05Z,42.805,6.029,13.2967,4.59958,2469.923,2019-10-08T07:03:30Z
2019-10-08T05:06:09Z,42.805,6.029,13.2959,4.59960,2469.937,2019-10-08T07:06:33Z
2019-10-08T05:09:12Z,42.805,6.029,13.2963,4.59961,2469.923,2019-10-08T07:09:37Z
2019-10-08T05:12:15Z,42.805,6.029,13.2963,4.59961,2469.923,2019-10-08T07:12:40Z
2019-10-08T05:15:18Z,42.805,6.029,13.2964,4.59962,2469.923,2019-10-08T07:15:43Z
2019-10-08T05:18:21Z,42.805,6.029,13.2962,4.59959,2469.9,2019-10-08T07:18:46Z
2019-10-08T05:21:24Z,42.805,6.029,13.2961,4.59964,2469.923,2019-10-08T07:21:49Z
2019-10-08T05:24:28Z,42.805,6.029,13.2961,4.59960,2469.937,2019-10-08T07:24:53Z
2019-10-08T05:27:31Z,42.805,6.029,13.2960,4.59959,2469.914,2019-10-08T07:27:56Z
2019-10-08T05:30:34Z,42.805,6.029,13.2962,4.59960,2469.9,2019-10-08T07:30:59Z
2019-10-08T05:33:37Z,42.805,6.029,13.2962,4.59961,2469.9,2019-10-08T07:34:02Z
2019-10-08T05:36:41Z,42.805,6.029,13.2965,4.59960,2469.937,2019-10-08T07:37:05Z
2019-10-08T05:39:44Z,42.805,6.029,13.2961,4.59961,2469.96,2019-10-08T07:40:08Z
2019-10-08T05:42:47Z,42.805,6.029,13.2964,4.59964,2469.914,2019-10-08T07:43:12Z
2019-10-08T05:45:50Z,42.805,6.029,13.2966,4.59960,2469.923,2019-10-08T07:46:15Z
2019-10-08T05:48:53Z,42.805,6.029,13.2962,4.59961,2469.9,2019-10-08T07:49:18Z
2019-10-08T05:51:57Z,42.805,6.029,13.2961,4.59961,2469.937,2019-10-08T07:52:22Z
2019-10-08T05:55:00Z,42.805,6.029,13.2961,4.59960,2469.876,2019-10-08T07:55:25Z
2019-10-08T05:58:03Z,42.805,6.029,13.2963,4.59961,2469.937,2019-10-08T07:58:28Z
2019-10-08T06:01:06Z,42.805,6.029,13.2961,4.59961,2469.947,2019-10-08T08:01:31Z
2019-10-08T06:04:10Z,42.805,6.029,13.2960,4.59962,2469.974,2019-10-08T08:04:35Z
2019-10-08T06:07:13Z,42.805,6.029,13.2964,4.59961,2469.937,2019-10-08T08:07:38Z
2019-10-08T06:10:17Z,42.805,6.029,13.2961,4.59962,2469.923,2019-10-08T08:10:41Z
2019-10-08T06:13:20Z,42.805,6.029,13.2962,4.59964,2469.923,2019-10-08T08:13:45Z
2019-10-08T06:16:23Z,42.805,6.029,13.2964,4.59960,2469.923,2019-10-08T08:16:48Z
2019-10-08T06:19:26Z,42.805,6.029,13.2963,4.59963,2469.923,2019-10-08T08:19:51Z
2019-10-08T06:22:30Z,42.805,6.029,13.2963,4.59961,2469.923,2019-10-08T08:22:54Z
2019-10-08T06:25:33Z,42.805,6.029,13.2960,4.59961,2469.923,2019-10-08T08:25:58Z
2019-10-08T06:28:36Z,42.805,6.029,13.2963,4.59964,2469.923,2019-10-08T08:29:01Z
2019-10-08T06:31:39Z,42.805,6.029,13.2964,4.59962,2469.9,2019-10-08T08:32:04Z
2019-10-08T06:34:42Z,42.805,6.029,13.2976,4.59970,2469.9,2019-10-08T08:35:07Z
2019-10-08T06:37:46Z,42.805,6.029,13.2979,4.59986,2469.914,2019-10-08T08:38:10Z
2019-10-08T06:40:49Z,42.805,6.029,13.2992,4.60000,2469.937,2019-10-08T08:41:14Z
2019-10-08T06:43:52Z,42.805,6.029,13.2991,4.60030,2469.937,2019-10-08T08:44:17Z
2019-10-08T06:46:55Z,42.805,6.029,13.2998,4.60010,2469.9,2019-10-08T08:47:20Z
2019-10-08T06:49:58Z,42.805,6.029,13.2983,4.59999,2469.923,2019-10-08T08:50:23Z
2019-10-08T06:53:02Z,42.805,6.029,13.2993,4.59993,2469.937,2019-10-08T08:53:26Z
2019-10-08T06:56:05Z,42.805,6.029,13.2991,4.59991,2469.923,2019-10-08T08:56:30Z
2019-10-08T06:59:08Z,42.805,6.029,13.2991,4.60009,2469.914,2019-10-08T08:59:33Z
2019-10-08T07:02:11Z,42.805,6.029,13.2993,4.59986,2469.9,2019-10-08T09:02:36Z
2019-10-08T07:05:14Z,42.805,6.029,13.2990,4.59997,2469.937,2019-10-08T09:05:39Z
2019-10-08T07:08:18Z,42.805,6.029,13.2982,4.59976,2469.914,2019-10-08T09:08:43Z
2019-10-08T07:11:21Z,42.805,6.029,13.2986,4.59997,2469.914,2019-10-08T09:11:46Z
2019-10-08T07:14:24Z,42.805,6.029,13.2990,4.60017,2469.9,2019-10-08T09:14:49Z
2019-10-08T07:17:27Z,42.805,6.029,13.2991,4.59981,2469.914,2019-10-08T09:17:52Z
2019-10-08T07:20:31Z,42.805,6.029,13.2972,4.60014,2469.9,2019-10-08T09:20:55Z
2019-10-08T07:23:34Z,42.805,6.029,13.2975,4.60017,2469.876,2019-10-08T09:23:59Z
2019-10-08T07:26:37Z,42.805,6.029,13.2977,4.60033,2469.914,2019-10-08T09:27:02Z
2019-10-08T07:29:40Z,42.805,6.029,13.2990,4.60029,2469.937,2019-10-08T09:30:05Z
2019-10-08T07:32:43Z,42.805,6.029,13.2983,4.60043,2469.914,2019-10-08T09:33:08Z
2019-10-08T07:35:47Z,42.805,6.029,13.2990,4.59997,2469.914,2019-10-08T09:36:12Z
2019-10-08T07:38:50Z,42.805,6.029,13.2990,4.60036,2469.914,2019-10-08T09:39:15Z
2019-10-08T07:41:53Z,42.805,6.029,13.2994,4.60030,2469.914,2019-10-08T09:42:18Z
2019-10-08T07:44:56Z,42.805,6.029,13.2986,4.60052,2469.923,2019-10-08T09:45:21Z
2019-10-08T07:47:59Z,42.805,6.029,13.2971,4.60022,2469.9,2019-10-08T09:48:24Z
2019-10-08T07:51:03Z,42.805,6.029,13.2984,4.60026,2469.9,2019-10-08T09:51:28Z
2019-10-08T07:54:06Z,42.805,6.029,13.2972,4.60020,2469.9,2019-10-08T09:54:31Z
2019-10-08T07:57:09Z,42.805,6.029,13.2980,4.59999,2469.914,2019-10-08T09:57:34Z
2019-10-08T08:00:12Z,42.805,6.029,13.2990,4.60023,2469.914,2019-10-08T10:00:37Z
2019-10-08T08:03:16Z,42.805,6.029,13.2991,4.60002,2469.9,2019-10-08T10:03:40Z
2019-10-08T08:06:19Z,42.805,6.029,13.2990,4.60057,2469.9,2019-10-08T10:06:44Z
2019-10-08T08:09:22Z,42.805,6.029,13.2982,4.60041,2469.937,2019-10-08T10:09:47Z
2019-10-08T08:12:25Z,42.805,6.029,13.2979,4.60019,2469.9,2019-10-08T10:12:50Z
2019-10-08T08:15:29Z,42.805,6.029,13.2988,4.60026,2469.914,2019-10-08T10:15:53Z
2019-10-08T08:18:32Z,42.805,6.029,13.2973,4.60020,2469.9,2019-10-08T10:18:57Z
2019-10-08T08:21:35Z,42.805,6.029,13.2968,4.60027,2469.876,2019-10-08T10:22:00Z
2019-10-08T08:24:38Z,42.805,6.029,13.2977,4.60006,2469.9,2019-10-08T10:25:03Z
2019-10-08T08:27:41Z,42.805,6.029,13.2988,4.60033,2469.9,2019-10-08T10:28:06Z
2019-10-08T08:30:45Z,42.805,6.029,13.2976,4.60009,2469.876,2019-10-08T10:31:09Z
2019-10-08T08:33:48Z,42.805,6.029,13.2975,4.60006,2469.914,2019-10-08T10:34:13Z
2019-10-08T08:36:51Z,42.805,6.029,13.2971,4.59998,2469.914,2019-10-08T10:37:16Z
2019-10-08T08:39:54Z,42.805,6.029,13.2976,4.59988,2469.89,2019-10-08T10:40:19Z
2019-10-08T08:42:58Z,42.805,6.029,13.2978,4.59981,2469.9,2019-10-08T10:43:22Z
2019-10-08T08:46:01Z,42.805,6.029,13.2983,4.59983,2469.89,2019-10-08T10:46:26Z
2019-10-08T08:49:04Z,42.805,6.029,13.2970,4.59989,2469.914,2019-10-08T10:49:29Z
2019-10-08T08:52:07Z,42.805,6.029,13.2979,4.60001,2469.876,2019-10-08T10:52:32Z
2019-10-08T08:55:10Z,42.805,6.029,13.2991,4.60028,2469.923,2019-10-08T10:55:35Z
2019-10-08T08:58:14Z,42.805,6.029,13.2974,4.59999,2469.9,2019-10-08T10:58:39Z
2019-10-08T09:01:17Z,42.805,6.029,13.2983,4.59993,2469.914,2019-10-08T11:01:42Z
2019-10-08T09:04:20Z,42.805,6.029,13.2979,4.59988,2469.914,2019-10-08T11:04:45Z
2019-10-08T09:07:23Z,42.805,6.029,13.2976,4.59991,2469.9,2019-10-08T11:07:48Z
2019-10-08T09:10:26Z,42.805,6.029,13.2986,4.60002,2469.876,2019-10-08T11:10:51Z
2019-10-08T09:13:30Z,42.805,6.029,13.2971,4.59977,2469.914,2019-10-08T11:13:55Z
2019-10-08T09:16:33Z,42.805,6.029,13.2978,4.59991,2469.9,2019-10-08T11:16:58Z
2019-10-08T09:19:36Z,42.805,6.029,13.2983,4.60011,2469.9,2019-10-08T11:20:01Z
2019-10-08T09:22:39Z,42.805,6.029,13.2982,4.60003,2469.9,2019-10-08T11:23:04Z
2019-10-08T09:25:42Z,42.805,6.029,13.2972,4.59990,2469.9,2019-10-08T11:26:07Z
2019-10-08T09:28:46Z,42.805,6.029,13.2970,4.60003,2469.89,2019-10-08T11:29:11Z
2019-10-08T09:31:49Z,42.805,6.029,13.2974,4.59984,2469.914,2019-10-08T11:32:14Z
2019-10-08T09:34:52Z,42.805,6.029,13.2979,4.59988,2469.9,2019-10-08T11:35:17Z
2019-10-08T09:37:56Z,42.805,6.029,13.2973,4.59988,2469.914,2019-10-08T11:38:20Z
2019-10-08T09:40:59Z,42.805,6.029,13.2974,4.60005,2469.9,2019-10-08T11:41:24Z
2019-10-08T09:44:02Z,42.805,6.029,13.2980,4.60008,2469.923,2019-10-08T11:44:27Z
2019-10-08T09:47:05Z,42.805,6.029,13.2979,4.60010,2469.914,2019-10-08T11:47:30Z
2019-10-08T09:50:08Z,42.805,6.029,13.2983,4.60002,2469.914,2019-10-08T11:50:33Z
2019-10-08T09:53:12Z,42.805,6.029,13.2976,4.59989,2469.914,2019-10-08T11:53:37Z
2019-10-08T09:56:15Z,42.805,6.029,13.2991,4.59996,2469.9,2019-10-08T11:56:40Z
2019-10-08T09:59:18Z,42.805,6.029,13.2974,4.59978,2469.9,2019-10-08T11:59:43Z
2019-10-08T10:02:22Z,42.805,6.029,13.2968,4.59976,2469.923,2019-10-08T12:02:46Z
2019-10-08T10:05:25Z,42.805,6.029,13.2975,4.59981,2469.9,2019-10-08T12:05:50Z
2019-10-08T10:08:28Z,42.805,6.029,13.2976,4.59986,2469.937,2019-10-08T12:08:53Z
2019-10-08T10:11:31Z,42.805,6.029,13.2980,4.59999,2469.914,2019-10-08T12:11:56Z
2019-10-08T10:14:35Z,42.805,6.029,13.2990,4.59996,2469.9,2019-10-08T12:14:59Z
2019-10-08T10:17:38Z,42.805,6.029,13.2974,4.59989,2469.9,2019-10-08T12:18:03Z
2019-10-08T10:20:41Z,42.805,6.029,13.2981,4.59996,2469.923,2019-10-08T12:21:06Z
2019-10-08T10:23:44Z,42.805,6.029,13.2977,4.59996,2469.937,2019-10-08T12:24:09Z
2019-10-08T10:26:48Z,42.805,6.029,13.2977,4.59997,2469.9,2019-10-08T12:27:12Z
2019-10-08T10:29:51Z,42.805,6.029,13.2974,4.59990,2469.9,2019-10-08T12:30:16Z
2019-10-08T10:32:54Z,42.805,6.029,13.2975,4.59998,2469.937,2019-10-08T12:33:19Z
2019-10-08T10:35:57Z,42.805,6.029,13.2971,4.59996,2469.876,2019-10-08T12:36:22Z
2019-10-08T10:39:00Z,42.805,6.029,13.2983,4.59999,2469.914,2019-10-08T12:39:25Z
2019-10-08T10:42:04Z,42.805,6.029,13.2977,4.59995,2469.9,2019-10-08T12:42:28Z
2019-10-08T10:45:07Z,42.805,6.029,13.2968,4.59987,2469.937,2019-10-08T12:45:32Z
2019-10-08T10:48:10Z,42.805,6.029,13.2970,4.59979,2469.937,2019-10-08T12:48:35Z
2019-10-08T10:51:13Z,42.805,6.029,13.2967,4.59978,2469.89,2019-10-08T12:51:38Z
2019-10-08T10:54:17Z,42.805,6.029,13.2974,4.59988,2469.914,2019-10-08T12:54:41Z
2019-10-08T10:57:20Z,42.805,6.029,13.2986,4.59999,2469.9,2019-10-08T12:57:45Z
2019-10-08T11:00:23Z,42.805,6.029,13.2975,4.59990,2469.937,2019-10-08T13:00:48Z
2019-10-08T11:03:26Z,42.805,6.029,13.2987,4.59991,2469.923,2019-10-08T13:03:51Z
2019-10-08T11:06:29Z,42.805,6.029,13.2977,4.59991,2469.9,2019-10-08T13:06:54Z
2019-10-08T11:09:33Z,42.805,6.029,13.2979,4.59986,2469.937,2019-10-08T13:09:57Z
2019-10-08T11:12:36Z,42.805,6.029,13.2984,4.60000,2469.923,2019-10-08T13:13:01Z
2019-10-08T11:15:39Z,42.805,6.029,13.2982,4.59996,2469.923,2019-10-08T13:16:04Z
2019-10-08T11:18:42Z,42.805,6.029,13.2974,4.59991,2469.914,2019-10-08T13:19:07Z
2019-10-08T11:21:45Z,42.805,6.029,13.2977,4.60003,2469.947,2019-10-08T13:22:10Z
2019-10-08T11:24:49Z,42.805,6.029,13.2972,4.59986,2469.937,2019-10-08T13:25:14Z
2019-10-08T11:27:52Z,42.805,6.029,13.2976,4.60000,2469.9,2019-10-08T13:28:17Z
2019-10-08T11:30:55Z,42.805,6.029,13.2986,4.60002,2469.923,2019-10-08T13:31:20Z
2019-10-08T11:33:58Z,42.805,6.029,13.2979,4.59988,2469.9,2019-10-08T13:34:23Z
2019-10-08T11:37:02Z,42.805,6.029,13.2986,4.59994,2469.937,2019-10-08T13:37:26Z
2019-10-08T11:40:05Z,42.805,6.029,13.2976,4.59983,2469.947,2019-10-08T13:40:30Z
2019-10-08T11:43:08Z,42.805,6.029,13.2979,4.59994,2469.914,2019-10-08T13:43:33Z
2019-10-08T11:46:11Z,42.805,6.029,13.2983,4.59997,2469.923,2019-10-08T13:46:36Z
2019-10-08T11:49:14Z,42.805,6.029,13.2976,4.59988,2469.9,2019-10-08T13:49:39Z
2019-10-08T11:52:18Z,42.805,6.029,13.2967,4.59969,2469.9,2019-10-08T13:52:42Z
2019-10-08T11:55:21Z,42.805,6.029,13.2982,4.59981,2469.937,2019-10-08T13:55:46Z
2019-10-08T11:58:24Z,42.805,6.029,13.2979,4.59979,2469.9,2019-10-08T13:58:49Z
2019-10-08T12:01:27Z,42.805,6.029,13.2971,4.59996,2469.923,2019-10-08T14:01:52Z
2019-10-08T12:04:31Z,42.805,6.029,13.2982,4.59989,2469.923,2019-10-08T14:04:55Z
2019-10-08T12:07:34Z,42.805,6.029,13.2974,4.59976,2469.923,2019-10-08T14:07:59Z
2019-10-08T12:10:37Z,42.805,6.029,13.2965,4.59979,2469.9,2019-10-08T14:11:02Z
2019-10-08T12:13:40Z,42.805,6.029,13.2968,4.59973,2469.937,2019-10-08T14:14:05Z
2019-10-08T12:16:43Z,42.805,6.029,13.2975,4.59976,2469.97,2019-10-08T14:17:08Z
2019-10-08T12:19:47Z,42.805,6.029,13.2973,4.59981,2469.914,2019-10-08T14:20:11Z
2019-10-08T12:22:50Z,42.805,6.029,13.2974,4.59975,2469.914,2019-10-08T14:23:15Z
2019-10-08T12:25:53Z,42.805,6.029,13.2982,4.59974,2469.923,2019-10-08T14:26:18Z
2019-10-08T12:28:56Z,42.805,6.029,13.2979,4.59991,2469.947,2019-10-08T14:29:21Z
2019-10-08T12:31:59Z,42.805,6.029,13.2974,4.59986,2469.923,2019-10-08T14:32:24Z
2019-10-08T12:35:03Z,42.805,6.029,13.2970,4.59998,2469.984,2019-10-08T14:35:28Z
2019-10-08T12:38:06Z,42.805,6.029,13.2982,4.59986,2469.97,2019-10-08T14:38:31Z
2019-10-08T12:41:09Z,42.805,6.029,13.2980,4.59978,2469.96,2019-10-08T14:41:34Z
2019-10-08T12:44:12Z,42.805,6.029,13.2986,4.59984,2469.947,2019-10-08T14:44:37Z
2019-10-08T12:47:16Z,42.805,6.029,13.2971,4.59995,2469.947,2019-10-08T14:47:40Z
2019-10-08T12:50:19Z,42.805,6.029,13.2979,4.59988,2469.947,2019-10-08T14:50:44Z
2019-10-08T12:53:22Z,42.805,6.029,13.2966,4.59973,2469.947,2019-10-08T14:53:47Z
2019-10-08T12:56:25Z,42.805,6.029,13.2972,4.59983,2469.923,2019-10-08T14:56:50Z
2019-10-08T12:59:29Z,42.805,6.029,13.2986,4.59991,2469.97,2019-10-08T14:59:53Z
2019-10-08T13:02:32Z,42.805,6.029,13.2964,4.59970,2469.96,2019-10-08T15:02:57Z
2019-10-08T13:05:35Z,42.805,6.029,13.2965,4.59970,2469.993,2019-10-08T15:06:00Z
2019-10-08T13:08:38Z,42.805,6.029,13.2969,4.59970,2469.937,2019-10-08T15:09:03Z
2019-10-08T13:11:42Z,42.805,6.029,13.2972,4.59980,2469.96,2019-10-08T15:12:06Z
2019-10-08T13:14:45Z,42.805,6.029,13.2975,4.59997,2470.007,2019-10-08T15:15:10Z
2019-10-08T13:17:48Z,42.805,6.029,13.2978,4.59992,2469.947,2019-10-08T15:18:13Z
2019-10-08T13:20:51Z,42.805,6.029,13.2971,4.59999,2469.984,2019-10-08T15:21:16Z
2019-10-08T13:23:54Z,42.805,6.029,13.2986,4.59996,2469.984,2019-10-08T15:24:19Z
2019-10-08T13:26:57Z,42.805,6.029,13.2976,4.59996,2469.984,2019-10-08T15:27:22Z
2019-10-08T13:30:01Z,42.805,6.029,13.2979,4.59989,2469.993,2019-10-08T15:30:26Z
2019-10-08T13:33:04Z,42.805,6.029,13.2967,4.59981,2469.993,2019-10-08T15:33:29Z
2019-10-08T13:36:07Z,42.805,6.029,13.2966,4.59970,2469.993,2019-10-08T15:36:32Z
2019-10-08T13:39:10Z,42.805,6.029,13.2969,4.59986,2470.007,2019-10-08T15:39:35Z
2019-10-08T13:42:14Z,42.805,6.029,13.2976,4.59991,2469.993,2019-10-08T15:42:39Z
2019-10-08T13:45:17Z,42.805,6.029,13.2976,4.59996,2469.97,2019-10-08T15:45:42Z
2019-10-08T13:48:20Z,42.805,6.029,13.2978,4.59993,2469.993,2019-10-08T15:48:45Z
2019-10-08T13:51:23Z,42.805,6.029,13.2979,4.59997,2469.993,2019-10-08T15:51:48Z
2019-10-08T13:54:27Z,42.805,6.029,13.2982,4.59993,2469.993,2019-10-08T15:54:51Z
2019-10-08T13:57:30Z,42.805,6.029,13.2970,4.59994,2470.03,2019-10-08T15:57:55Z
2019-10-08T14:00:33Z,42.805,6.029,13.2976,4.59991,2470.03,2019-10-08T16:00:58Z
2019-10-08T14:03:36Z,42.805,6.029,13.2974,4.59991,2470.007,2019-10-08T16:04:01Z
2019-10-08T14:06:39Z,42.805,6.029,13.2979,4.59988,2470.017,2019-10-08T16:07:04Z
2019-10-08T14:09:43Z,42.805,6.029,13.2979,4.59991,2470.007,2019-10-08T16:10:08Z
2019-10-08T14:12:46Z,42.805,6.029,13.2968,4.59985,2470.003,2019-10-08T16:13:11Z
2019-10-08T14:15:49Z,42.805,6.029,13.2974,4.59988,2470.007,2019-10-08T16:16:14Z
2019-10-08T14:18:52Z,42.805,6.029,13.2972,4.59988,2470.007,2019-10-08T16:19:17Z
2019-10-08T14:21:55Z,42.805,6.029,13.2974,4.59995,2469.993,2019-10-08T16:22:20Z
2019-10-08T14:24:59Z,42.805,6.029,13.2981,4.59986,2470.017,2019-10-08T16:25:23Z
2019-10-08T14:28:02Z,42.805,6.029,13.2978,4.59994,2470.017,2019-10-08T16:28:27Z
2019-10-08T14:31:05Z,42.805,6.029,13.2975,4.59994,2469.993,2019-10-08T16:31:30Z
2019-10-08T14:34:08Z,42.805,6.029,13.2965,4.59976,2470.017,2019-10-08T16:34:33Z
2019-10-08T14:37:11Z,42.805,6.029,13.2973,4.59986,2470.017,2019-10-08T16:37:36Z
2019-10-08T14:40:15Z,42.805,6.029,13.2979,4.59988,2470.017,2019-10-08T16:40:40Z
2019-10-08T14:43:18Z,42.805,6.029,13.2975,4.59989,2470.053,2019-10-08T16:43:43Z
2019-10-08T14:46:21Z,42.805,6.029,13.2979,4.59986,2470.04,2019-10-08T16:46:46Z
2019-10-08T14:49:24Z,42.805,6.029,13.2976,4.59988,2470.017,2019-10-08T16:49:49Z
2019-10-08T14:52:28Z,42.805,6.029,13.2967,4.59981,2470.003,2019-10-08T16:52:53Z
2019-10-08T14:55:31Z,42.805,6.029,13.2978,4.59992,2470.017,2019-10-08T16:55:56Z
2019-10-08T14:58:34Z,42.805,6.029,13.2981,4.59989,2470.053,2019-10-08T16:58:59Z
2019-10-08T15:01:37Z,42.805,6.029,13.2974,4.59986,2470.063,2019-10-08T17:02:02Z
2019-10-08T15:04:40Z,42.805,6.029,13.2974,4.59996,2470.007,2019-10-08T17:05:05Z